Date String (YYYY-MM-DD hh:mm:ss) UTC,Instrument flags,Ambient pressure (hPa),Sample flow (lpm),Bypass flow (lpm),Sample temperature (°C),Ambient temperature (°C),ASC tube jacket temperature (°C),LED temperature (°C),Box temperature (°C),Sample RH (%),Span deviation,Mass concentration (μg/m³),Mass concentration (μg/m³),Mass concentration (μg/m³)
DateTimeUTC,F1_M11,P_M11,Q1_M11,Q2_M11,T1_M11,T2_M11,T3_M11,T4_M11,T5_M11,U1_M11,ZSPAN_M11,X0_M11,X2_M11,X1_M11
2021-09-10 15:00:00,,0830.5,5.00,0.00,30.0,29.1,00.0,39.0,31.9,13.9,-001.4,0034.11,0019.31,0017.93
2021-09-10 15:01:00,,0830.5,5.00,0.00,30.0,28.8,00.0,39.0,31.8,14.3,-001.2,0032.73,0019.33,0017.92
2021-09-10 15:02:00,,0830.5,4.99,0.00,30.0,27.1,00.0,39.0,31.4,14.4,-000.9,0033.88,0019.37,0017.94
2021-09-10 15:03:00,,0830.5,5.01,0.00,29.8,26.4,00.0,39.0,31.2,14.3,-000.4,0033.77,0019.43,0017.96
2021-09-10 15:04:00,,0830.5,4.99,0.00,29.8,26.8,00.0,39.0,31.3,14.6,0000.2,0034.23,0019.42,0017.94
2021-09-10 15:05:00,,0830.5,4.99,0.00,29.7,27.2,00.0,38.9,31.3,13.7,0000.5,0035.04,0019.48,0017.94
2021-09-10 15:06:00,,0830.5,5.01,0.00,29.7,27.6,00.0,38.9,31.3,14.1,0001.2,0035.59,0019.53,0017.95
2021-09-10 15:07:00,,0830.5,5.00,0.00,29.7,27.9,00.0,38.9,31.4,14.9,0002.0,0037.09,0019.55,0017.96
2021-09-10 15:08:00,,0830.5,4.99,0.00,29.8,28.2,00.0,38.9,31.5,14.4,0002.2,0039.55,0019.59,0017.96
2021-09-10 15:09:00,,0830.5,5.00,0.00,29.8,28.4,00.0,38.9,31.6,14.5,0002.4,0039.15,0019.61,0017.95
2021-09-10 15:10:00,,0830.5,5.00,0.00,29.8,28.6,00.0,38.9,31.6,14.6,0002.3,0039.22,0019.55,0017.93
2021-09-10 15:11:00,,0830.5,4.99,0.00,29.9,28.8,00.0,38.9,31.7,14.3,0002.1,0040.06,0019.64,0017.92
2021-09-10 15:12:00,,0830.5,5.01,0.00,29.9,28.9,00.0,38.9,31.8,15.3,0002.4,0041.78,0019.70,0017.93
2021-09-10 15:13:00,,0830.5,5.00,0.00,30.0,29.0,00.0,38.9,31.8,15.8,0001.9,0041.54,0019.73,0017.93
2021-09-10 15:14:00,,0830.6,4.99,0.00,30.0,29.1,00.0,38.9,31.9,15.7,0001.7,0041.73,0019.78,0017.93
2021-09-10 15:15:00,,0830.5,5.01,0.00,30.0,28.6,00.0,39.0,31.7,15.7,0001.5,0044.17,0019.79,0017.93
2021-09-10 15:16:00,,0830.5,4.99,0.00,29.9,26.8,00.0,38.9,31.2,15.8,0000.9,0044.62,0019.88,0018.00
2021-09-10 15:17:00,,0830.5,5.00,0.00,29.7,26.3,00.0,38.9,31.0,14.3,0000.6,0045.16,0020.00,0018.07
2021-09-10 15:18:00,,0830.5,5.00,0.00,29.7,26.7,00.0,38.9,31.1,14.3,0000.3,0045.52,0020.04,0018.08
2021-09-10 15:19:00,,0830.5,5.00,0.00,29.7,27.1,00.0,38.9,31.2,14.7,0000.2,0044.23,0020.17,0018.13
2021-09-10 15:20:00,,0830.5,5.01,0.00,29.7,27.6,00.0,38.8,31.3,14.6,0000.1,0043.66,0020.32,0018.21
2021-09-10 15:21:00,,0830.5,4.99,0.00,29.7,27.9,00.0,38.8,31.4,14.6,0000.0,0043.90,0020.37,0018.25
2021-09-10 15:22:00,,0830.5,4.99,0.00,29.7,28.2,00.0,38.8,31.4,14.5,0000.2,0043.50,0020.41,0018.32
2021-09-10 15:23:00,,0830.5,5.01,0.00,29.8,28.4,00.0,38.8,31.5,15.0,-000.0,0043.19,0020.41,0018.35
2021-09-10 15:24:00,,0830.5,5.00,0.00,29.8,28.6,00.0,38.8,31.6,15.2,0000.4,0043.08,0020.41,0018.38
2021-09-10 15:25:00,,0830.5,5.00,0.00,29.8,28.7,00.0,38.8,31.6,14.3,0000.9,0043.05,0020.44,0018.38
2021-09-10 15:26:00,,0830.5,5.00,0.00,29.9,28.9,00.0,38.9,31.7,13.6,0000.8,0040.89,0020.48,0018.41
2021-09-10 15:27:00,,0830.5,5.00,0.00,29.9,29.0,00.0,38.9,31.7,13.6,0000.3,0039.09,0020.44,0018.39
2021-09-10 15:28:00,,0830.5,5.00,0.00,30.0,28.9,00.0,38.9,31.8,13.2,0000.3,0038.87,0020.39,0018.36
2021-09-10 15:29:00,,0830.5,5.00,0.00,29.9,27.4,00.0,38.9,31.4,14.3,0000.4,0037.61,0020.40,0018.37
2021-09-10 15:30:00,,0830.5,5.00,0.00,29.8,26.3,00.0,38.9,31.1,18.5,0000.2,0037.74,0020.36,0018.35
2021-09-10 15:31:00,,0830.5,4.99,0.00,29.7,26.6,00.0,38.9,31.1,18.1,0000.2,0039.55,0020.37,0018.36
2021-09-10 15:32:00,,0830.5,5.00,0.00,29.7,27.0,00.0,38.8,31.2,17.9,0000.1,0041.29,0020.49,0018.37
2021-09-10 15:33:00,,0830.5,5.00,0.00,29.6,27.4,00.0,38.8,31.3,17.0,0000.0,0042.34,0020.59,0018.40
2021-09-10 15:34:00,,0830.5,5.01,0.00,29.7,27.8,00.0,38.8,31.3,16.8,-000.7,0042.95,0020.73,0018.45
2021-09-10 15:35:00,,0830.5,4.99,0.00,29.7,28.1,00.0,38.8,31.4,17.2,-000.8,0043.30,0020.78,0018.45
2021-09-10 15:36:00,,0830.5,5.00,0.00,29.7,28.3,00.0,38.8,31.5,17.6,-000.7,0044.31,0020.81,0018.50
2021-09-10 15:37:00,,0830.5,5.00,0.00,29.8,28.5,00.0,38.8,31.6,17.8,-000.7,0046.69,0020.82,0018.54
2021-09-10 15:38:00,,0830.5,4.99,0.00,29.8,28.7,00.0,38.8,31.6,17.8,-000.4,0050.62,0020.88,0018.57
2021-09-10 15:39:00,,0830.5,5.01,0.00,29.8,28.8,00.0,38.8,31.7,17.7,-000.6,0050.81,0020.88,0018.60
2021-09-10 15:40:00,,0830.5,4.99,0.00,29.9,29.0,00.0,38.8,31.7,17.0,-000.8,0050.81,0020.88,0018.64
2021-09-10 15:41:00,,0830.5,4.99,0.00,29.9,29.0,00.0,38.9,31.8,17.0,-000.4,0050.37,0020.99,0018.69
2021-09-10 15:42:00,,0830.5,5.01,0.00,29.9,27.9,00.0,38.9,31.5,17.5,-000.7,0050.28,0021.02,0018.69
2021-09-10 15:43:00,,0830.5,5.00,0.00,29.8,26.3,00.0,38.8,31.1,17.3,-000.9,0048.67,0020.96,0018.70
2021-09-10 15:44:00,,0830.5,4.99,0.00,29.7,26.4,00.0,38.8,31.0,16.9,-001.1,0047.48,0020.96,0018.72
2021-09-10 15:45:00,,0830.5,5.00,0.00,29.6,26.8,00.0,38.8,31.1,16.7,-000.6,0046.50,0020.86,0018.69
2021-09-10 15:46:00,,0830.5,5.01,0.00,29.6,27.2,00.0,38.8,31.2,17.9,-000.7,0045.80,0020.78,0018.69
2021-09-10 15:47:00,,0830.6,5.00,0.00,29.6,27.6,00.0,38.7,31.3,18.7,-001.1,0043.77,0020.67,0018.67
2021-09-10 15:48:00,,0830.6,5.01,0.00,29.6,28.0,00.0,38.7,31.4,18.8,-000.8,0041.49,0020.65,0018.66
2021-09-10 15:49:00,,0830.6,5.00,0.00,29.7,28.2,00.0,38.7,31.4,18.6,-000.2,0038.79,0020.58,0018.63
2021-09-10 15:50:00,,0830.6,4.99,0.00,29.7,28.4,00.0,38.7,31.5,18.4,-000.3,0040.16,0020.54,0018.58
2021-09-10 15:51:00,,0830.6,5.00,0.00,29.8,28.6,00.0,38.7,31.6,18.9,-000.6,0039.89,0020.53,0018.55
2021-09-10 15:52:00,,0830.6,5.00,0.00,29.8,28.8,00.0,38.8,31.6,19.6,-000.9,0039.68,0020.42,0018.52
2021-09-10 15:53:00,,0830.6,5.01,0.00,29.8,28.9,00.0,38.8,31.7,19.0,-000.9,0038.05,0020.36,0018.53
2021-09-10 15:54:00,,0830.6,5.00,0.00,29.9,28.3,00.0,38.8,31.6,19.3,-000.8,0037.81,0020.36,0018.52
2021-09-10 15:55:00,,0830.6,5.00,0.00,29.8,26.6,00.0,38.8,31.2,19.1,-000.4,0037.28,0020.25,0018.47
2021-09-10 15:56:00,,0830.5,5.00,0.00,29.6,26.3,00.0,38.8,31.0,19.2,-000.5,0037.07,0020.22,0018.47
2021-09-10 15:57:00,,0830.5,5.00,0.00,29.6,26.7,00.0,38.8,31.1,19.1,-000.3,0036.57,0020.24,0018.47
2021-09-10 15:58:00,,0830.5,5.01,0.00,29.5,27.1,00.0,38.7,31.2,19.3,-000.0,0037.41,0020.37,0018.49
2021-09-10 15:59:00,,0830.5,4.97,0.00,29.5,27.5,00.0,38.7,31.2,19.1,0000.1,0039.34,0020.48,0018.49
